Regional Weather Roundup
Issued by NWS

Home | Current Version | Previous Version | Text Only | Print | Product List | Glossary On
Versions: 1 2 3 4 5 6 7 8 9 10 11 12 13 14 15 16 17 18 19 20 21 22 23 24 25 26 27 28 29 30 31 32 33 34 35 36 37 38 39 40 41 42 43 44 45 46 47 48 49 50
000
ASUS43 KDTX 171101
RWRMI
MICHIGAN HOURLY REGIONAL WEATHER ROUNDUP
NATIONAL WEATHER SERVICE DETROIT/PONTIAC MI
600 AM EST FRI NOV 17 2017

NOTE: "FAIR" INDICATES FEW OR NO CLOUDS BELOW 12,000 FEET WITH NO
SIGNIFICANT WEATHER AND/OR OBSTRUCTION TO VISIBILITY.

MIZ047>049-052>055-059>063-066>070-074>076-081>083-171200-
SOUTHEAST LOWER MICHIGAN

CITY           SKY/WX    TMP DP  RH WIND       PRES   REMARKS
ADRIAN         CLOUDY    33  28  81 CALM      30.27R
ALMA           CLOUDY    31  29  94 CALM      30.27R
ANN ARBOR      CLOUDY    34  27  75 CALM      30.25R
BAD AXE        CLOUDY    31  23  73 CALM      30.27S
CARO           CLOUDY    27  24  90 CALM      30.27R
DETROIT CITY   CLOUDY    34  26  72 E5        30.28R WCI  30
DETROIT        CLOUDY    35  29  78 CALM      30.28R
FLINT          CLOUDY    32  25  75 SE3       30.26S
GROSSE ILE     CLOUDY    35  29  78 CALM      30.26R
HILLSDALE      CLOUDY    32  28  86 SE3       30.22R
HOWELL         CLOUDY    32  28  84 E5        30.24F WCI  28

CITY           SKY/WX    TMP DP  RH WIND       PRES   REMARKS
JACKSON        CLOUDY    33  28  81 CALM      30.24R
LAMBERTVILLE   CLOUDY    36  30  78 CALM      30.26R
LANSING        CLOUDY    32  28  85 E3        30.25S
LAPEER         CLOUDY    31  25  78 CALM      30.27R
MASON          CLOUDY    32  29  87 CALM      30.24S
MONROE         CLOUDY    34  29  82 CALM      30.26S
MT. CLEMENS    CLOUDY    33  26  76 W6        30.26R WCI  27
PONTIAC        CLOUDY    33  26  75 CALM      30.24R
PORT HOPE        N/A     32  25  75 CALM      30.26R
PORT HURON     CLOUDY    30  23  74 W3        30.27R
TRI CITIES     MOCLDY    28  26  92 SE3       30.28R
MIDLAND        FAIR      26  24  95 CALM      30.27R
SAGINAW HB     CLOUDY    30  27  86 SE3       30.27S
$$
MIZ043>046-050>051-056>058-064>065-071>073-077>080-171200-
SOUTHWEST LOWER MICHIGAN

CITY           SKY/WX    TMP DP  RH WIND       PRES   REMARKS
BATTLE CREEK   CLOUDY    34  29  82 SE5       30.22F WCI  30
BENTON HARBOR  CLOUDY    36  30  79 SE7       30.18F WCI  30
BIG RAPIDS     CLOUDY    29  25  83 SE8       30.19F WCI  21
COLDWATER      MOCLDY    32  29  88 SE3       30.21F
FREMONT        CLOUDY    30  28  90 E8        30.17F WCI  23
HOLLAND        CLOUDY    33  30  88 SE9       30.19F WCI  25
GRAND RAPIDS   CLOUDY    31  30  96 E10       30.20F WCI  22
IONIA          CLOUDY    31  28  90 E6        30.23S WCI  25
KALAMAZOO      CLOUDY    36  28  73 S6        30.20F WCI  31
LUDINGTON      CLOUDY    31  26  82 E9        30.14F WCI  22
MARSHALL       CLOUDY    30  29  96 E5        30.22F WCI  25
MOUNT PLEASANT CLOUDY    28  25  87 CALM      30.25R
MUSKEGON       CLOUDY    32  27  81 SE10      30.18F WCI  24
SOUTH HAVEN    CLOUDY    36  32  86 SE6       30.18S WCI  31
$$
MIZ016>042-171200-
NORTHERN LOWER MICHIGAN

CITY           SKY/WX    TMP DP  RH WIND       PRES   REMARKS
ALPENA         CLOUDY    28  24  85 CALM      30.25S
BEAVER ISLAND  CLOUDY    31  24  77 SE10      30.20F WCI  22
BELLAIRE       CLOUDY    27  25  89 CALM      30.23F
CADILLAC       CLOUDY    25  22  86 SE6       30.17F WCI  18
CHARLEVOIX     CLOUDY    27  22  79 E5        30.25F WCI  22
FRANKFORT      CLOUDY    31  25  77 SE9       30.16F WCI  23
GAYLORD        PTCLDY    23  19  85 SE9       30.19S WCI  13
GRAYLING       CLOUDY    23  19  85 SE3       30.23R
HARBOR SPRINGS CLOUDY    26  22  83 E3        30.24R
HOUGHTON LAKE  CLOUDY    23  19  85 SE3       30.23R
MANISTEE       PTCLDY    29  25  85 E10       30.15F WCI  20
OSCODA         CLOUDY    28  21  74 CALM      30.25F
PELLSTON       CLOUDY    27  22  81 S3        30.24R
ROGERS CITY    CLOUDY    28  23  79 S6        30.25F WCI  22
TRAVERSE CITY  PTCLDY    28  22  78 CALM      30.20F
$$
MIZ007>008-015-171200-
EASTERN UPPER MICHIGAN

CITY           SKY/WX    TMP DP  RH WIND       PRES   REMARKS
KINROSS        CLOUDY    22  19  89 E6        30.24R WCI  14
MACKINAC ISLAN CLOUDY    30  22  73 S9        30.23R WCI  22
NEWBERRY       CLOUDY    23  22  96 E9        30.19F WCI  13
S. S. MARIE    CLOUDY    23  16  74 E7        30.24S WCI  15
MUNISING         N/A     27  24  89 S9        30.09F WCI  18
$$
MIZ004>006-011>014-085-171200-
CENTRAL UPPER MICHIGAN

CITY           SKY/WX    TMP DP  RH WIND       PRES   REMARKS
MANISTIQUE     CLOUDY    32  26  77 SE10G16   30.14F WCI  24
ESCANABA       CLOUDY    36  30  79 SE12      30.11F WCI  28
MENOMINEE      CLOUDY    36  30  79 S9        30.12F WCI  29
SAWYER-GWINN   CLOUDY    26  24  91 S9        30.06F WCI  17
$$
MIZ001>003-009>011-084-171200-
WESTERN UPPER MICHIGAN

CITY           SKY/WX    TMP DP  RH WIND       PRES   REMARKS
IRON MOUNTAIN  CLOUDY    29  22  75 SE8       30.06F WCI  21
HOUGHTON       CLOUDY    30  23  75 S16       29.96F WCI  19
COPPER HARBOR    N/A     32  26  78 SW21G36   29.97F WCI  20
IRONWOOD       FLURRIES  31  26  82 SE14G24   29.88F WCI  21
$$

ABBREVIATIONS USED IN REMARKS
   TC - TEMPERATURE IN CELSIUS
  WCI - WIND CHILL INDEX
   HX - HEAT INDEX
  VSB - VISIBILITY





USA.gov is the U.S. government's official web portal to all federal, state and local government web resources and services.